,,Stat6,,Stat2,,Stat8,,Stat9,,Stat10,,Wind1,,Wind1,
time,status,PA1M_AVG,status,PR1M_SUM,status,RH1M_AVG,status,SR1M_AVG,status,TA1M_AVG,status,W1dAve1m,status,W1sAve1m,
2003-12-24, 00:00:00,VALID,920.181,VALID,0,VALID,100,VALID,0.0339617,VALID,19.5097,VALID,126,VALID,0.919085,
2003-12-24, 00:01:00,VALID,920.168,VALID,0,VALID,100,VALID,0.0339617,VALID,19.5008,VALID,131,VALID,0.667878,
2003-12-24, 00:02:00,VALID,920.151,VALID,0,VALID,100,VALID,0.0509425,VALID,19.4744,VALID,114,VALID,0.731027,
2003-12-24, 00:03:00,VALID,920.135,VALID,0,VALID,100,VALID,0.0509425,VALID,19.4456,VALID,117,VALID,0.857887,
2003-12-24, 00:04:00,VALID,920.12,VALID,0,VALID,100,VALID,0.0679233,VALID,19.4158,VALID,117,VALID,0.745458,
2003-12-24, 00:05:00,VALID,920.102,VALID,0,VALID,100,VALID,0.0509425,VALID,19.3942,VALID,113,VALID,0.739329,
2003-12-24, 00:06:00,VALID,920.065,VALID,0,VALID,100,VALID,0.0679233,VALID,19.3584,VALID,108,VALID,0.646257,
2003-12-24, 00:07:00,VALID,920.052,VALID,0,VALID,100,VALID,0,VALID,19.3395,VALID,118,VALID,0.59266,
2003-12-24, 00:08:00,VALID,920.044,VALID,0,VALID,100,VALID,-0.0679233,VALID,19.3077,VALID,62,VALID,0.363477,
2003-12-24, 00:09:00,VALID,920.032,VALID,0,VALID,100,VALID,-0.0679233,VALID,19.2789,VALID,79,VALID,0.436942,
2003-12-24, 00:10:00,VALID,920.012,VALID,0,VALID,100,VALID,-0.0339617,VALID,19.27,VALID,113,VALID,0.524805,
2003-12-24, 00:11:00,VALID,920.002,VALID,0,VALID,100,VALID,-0.0339617,VALID,19.2665,VALID,113,VALID,0.647166,
2003-12-24, 00:12:00,VALID,919.985,VALID,0,VALID,100,VALID,-0.0679233,VALID,19.2662,VALID,105,VALID,0.578887,
2003-12-24, 00:13:00,VALID,919.984,VALID,0,VALID,100,VALID,-0.0679233,VALID,19.2531,VALID,75,VALID,0.547247,
2003-12-24, 00:14:00,VALID,919.982,VALID,0,VALID,100,VALID,-0.0339617,VALID,19.2372,VALID,88,VALID,0.718928,
2003-12-24, 00:15:00,VALID,919.968,VALID,0,VALID,100,VALID,-0.0169808,VALID,19.2469,VALID,107,VALID,0.564215,
2003-12-24, 00:16:00,VALID,919.962,VALID,0,VALID,100,VALID,-0.0509425,VALID,19.2369,VALID,114,VALID,0.877951,
2003-12-24, 00:17:00,VALID,919.936,VALID,0,VALID,100,VALID,-0.0679233,VALID,19.2012,VALID,129,VALID,1.1995,
2003-12-24, 00:18:00,VALID,919.926,VALID,0,VALID,100,VALID,-0.0509425,VALID,19.2019,VALID,125,VALID,1.02943,
2003-12-24, 00:19:00,VALID,919.912,VALID,0,VALID,100,VALID,-0.0339617,VALID,19.2017,VALID,127,VALID,0.907315,
2003-12-24, 00:20:00,VALID,919.902,VALID,0,VALID,100,VALID,-0.0169808,VALID,19.1887,VALID,126,VALID,0.983487,
2003-12-24, 00:21:00,VALID,919.907,VALID,0,VALID,100,VALID,0,VALID,19.1823,VALID,126,VALID,0.838844,
2003-12-24, 00:22:00,VALID,919.893,VALID,0,VALID,100,VALID,0.0169808,VALID,19.146,VALID,120,VALID,0.762326,
2003-12-24, 00:23:00,VALID,919.873,VALID,0,VALID,100,VALID,0.0849042,VALID,19.1458,VALID,119,VALID,0.692073,
2003-12-24, 00:24:00,VALID,919.854,VALID,0,VALID,100,VALID,0.0679233,VALID,19.1163,VALID,96,VALID,0.93892,
2003-12-24, 00:25:00,VALID,919.83,VALID,0,VALID,100,VALID,0.0679233,VALID,19.0969,VALID,87,VALID,0.689918,
2003-12-24, 00:26:00,VALID,919.804,VALID,0,VALID,100,VALID,0.0849042,VALID,19.0872,VALID,106,VALID,1.06813,
2003-12-24, 00:27:00,VALID,919.808,VALID,0,VALID,100,VALID,0.0679233,VALID,19.078,VALID,110,VALID,0.69391,
2003-12-24, 00:28:00,VALID,919.79,VALID,0,VALID,100,VALID,-0.0169808,VALID,19.0824,VALID,86,VALID,0.753551,
2003-12-24, 00:29:00,VALID,919.789,VALID,0,VALID,100,VALID,-0.0339617,VALID,19.0663,VALID,80,VALID,0.789807,
2003-12-24, 00:30:00,VALID,919.759,VALID,0,VALID,100,VALID,-0.0169808,VALID,19.0757,VALID,71,VALID,0.615473,
2003-12-24, 00:31:00,VALID,919.748,VALID,0,VALID,100,VALID,-0.0509425,VALID,19.0829,VALID,100,VALID,0.691778,
2003-12-24, 00:32:00,VALID,919.725,VALID,0,VALID,100,VALID,-0.0509425,VALID,19.0767,VALID,116,VALID,0.919336,
2003-12-24, 00:33:00,VALID,919.71,VALID,0,VALID,100,VALID,-0.0339617,VALID,19.0536,VALID,115,VALID,1.00139,
2003-12-24, 00:34:00,VALID,919.676,VALID,0,VALID,100,VALID,-0.0679233,VALID,19.0213,VALID,117,VALID,1.26767,
2003-12-24, 00:35:00,VALID,919.673,VALID,0,VALID,100,VALID,-0.0509425,VALID,19.0054,VALID,109,VALID,0.878997,
2003-12-24, 00:36:00,VALID,919.667,VALID,0,VALID,100,VALID,0,VALID,18.9922,VALID,82,VALID,1.00107,
2003-12-24, 00:37:00,VALID,919.676,VALID,0,VALID,100,VALID,0,VALID,18.9719,VALID,69,VALID,0.511265,
2003-12-24, 00:38:00,VALID,919.671,VALID,0,VALID,100,VALID,0.0679233,VALID,18.9811,VALID,62,VALID,0.589658,
2003-12-24, 00:39:00,VALID,919.664,VALID,0,VALID,100,VALID,0.0509425,VALID,18.997,VALID,93,VALID,0.703307,
2003-12-24, 00:40:00,VALID,919.639,VALID,0,VALID,100,VALID,0.0509425,VALID,18.9906,VALID,110,VALID,1.06505,
2003-12-24, 00:41:00,VALID,919.625,VALID,0,VALID,100,VALID,0.101885,VALID,18.9714,VALID,117,VALID,0.724746,
2003-12-24, 00:42:00,VALID,919.609,VALID,0,VALID,100,VALID,0.101885,VALID,18.9357,VALID,126,VALID,0.896076,
2003-12-24, 00:43:00,VALID,919.594,VALID,0,VALID,100,VALID,0.0679233,VALID,18.9421,VALID,125,VALID,1.14379,
2003-12-24, 00:44:00,VALID,919.585,VALID,0,VALID,100,VALID,0.0849042,VALID,18.9292,VALID,121,VALID,0.902902,
2003-12-24, 00:45:00,VALID,919.572,VALID,0,VALID,100,VALID,0.101885,VALID,18.9454,VALID,136,VALID,0.889291,
2003-12-24, 00:46:00,VALID,919.564,VALID,0,VALID,100,VALID,0.0849042,VALID,18.9396,VALID,122,VALID,0.941406,
2003-12-24, 00:47:00,VALID,919.558,VALID,0,VALID,100,VALID,0.0849042,VALID,18.9036,VALID,131,VALID,1.13299,
2003-12-24, 00:48:00,VALID,919.547,VALID,0,VALID,100,VALID,0.0849042,VALID,18.8868,VALID,133,VALID,0.871982,
2003-12-24, 00:49:00,VALID,919.538,VALID,0,VALID,100,VALID,0.0849042,VALID,18.8803,VALID,126,VALID,0.851004,
2003-12-24, 00:50:00,VALID,919.528,VALID,0,VALID,100,VALID,0.0849042,VALID,18.9002,VALID,122,VALID,0.844494,
2003-12-24, 00:51:00,VALID,919.523,VALID,0,VALID,100,VALID,0.101885,VALID,18.8907,VALID,138,VALID,0.855655,
2003-12-24, 00:52:00,VALID,919.514,VALID,0,VALID,100,VALID,0.0849042,VALID,18.8743,VALID,153,VALID,0.431445,
2003-12-24, 00:53:00,VALID,919.515,VALID,0,VALID,100,VALID,0.0849042,VALID,18.852,VALID,141,VALID,0.409339,
2003-12-24, 00:54:00,VALID,919.524,VALID,0,VALID,100,VALID,0.0679233,VALID,18.8517,VALID,130,VALID,0.400985,
2003-12-24, 00:55:00,VALID,919.507,VALID,0,VALID,100,VALID,0.0679233,VALID,18.8423,VALID,128,VALID,0.488095,
2003-12-24, 00:56:00,VALID,919.516,VALID,0,VALID,100,VALID,0.0339617,VALID,18.8008,VALID,86,VALID,0.500744,
2003-12-24, 00:57:00,VALID,919.502,VALID,0,VALID,100,VALID,0.0679233,VALID,18.7618,VALID,101,VALID,0.529018,
2003-12-24, 00:58:00,VALID,919.507,VALID,0,VALID,100,VALID,0.0679233,VALID,18.7256,VALID,98,VALID,0.264717,
2003-12-24, 00:59:00,VALID,919.495,VALID,0,VALID,100,VALID,0.0849042,VALID,18.7099,VALID,97,VALID,0.260603,
2003-12-24, 01:00:00,VALID,919.471,VALID,0,VALID,100,VALID,0.0849042,VALID,18.694,VALID,81,VALID,0.480741,
2003-12-24, 01:01:00,VALID,919.453,VALID,0,VALID,100,VALID,0.0679233,VALID,18.688,VALID,76,VALID,0.653646,
2003-12-24, 01:02:00,VALID,919.446,VALID,0,VALID,100,VALID,0.0679233,VALID,18.6647,VALID,72,VALID,0.58576,
2003-12-24, 01:03:00,VALID,919.453,VALID,0,VALID,100,VALID,0.0509425,VALID,18.5872,VALID,56,VALID,0.700107,
2003-12-24, 01:04:00,VALID,919.463,VALID,0,VALID,100,VALID,0.0849042,VALID,18.5453,VALID,55,VALID,0.49349,
2003-12-24, 01:05:00,VALID,919.472,VALID,0,VALID,100,VALID,0.0679233,VALID,18.5234,VALID,61,VALID,0.325218,
2003-12-24, 01:06:00,VALID,919.469,VALID,0,VALID,100,VALID,0.0679233,VALID,18.4812,VALID,61,VALID,0.328658,
2003-12-24, 01:07:00,VALID,919.464,VALID,0,VALID,100,VALID,0.0169808,VALID,18.4625,VALID,56,VALID,0.266644,
2003-12-24, 01:08:00,VALID,919.46,VALID,0,VALID,100,VALID,-0.0509425,VALID,18.4602,VALID,75,VALID,0.479992,
2003-12-24, 01:09:00,VALID,919.459,VALID,0,VALID,100,VALID,-0.0509425,VALID,18.4858,VALID,78,VALID,0.404978,
2003-12-24, 01:10:00,VALID,919.437,VALID,0,VALID,100,VALID,-0.0339617,VALID,18.5439,VALID,93,VALID,0.660792,
2003-12-24, 01:11:00,VALID,919.44,VALID,0,VALID,100,VALID,-0.0169808,VALID,18.5926,VALID,88,VALID,0.786966,
2003-12-24, 01:12:00,VALID,919.439,VALID,0,VALID,100,VALID,-0.0339617,VALID,18.6087,VALID,102,VALID,0.83647,
2003-12-24, 01:13:00,VALID,919.419,VALID,0,VALID,100,VALID,0,VALID,18.5767,VALID,117,VALID,0.848514,
2003-12-24, 01:14:00,VALID,919.427,VALID,0,VALID,100,VALID,-0.0509425,VALID,18.5377,VALID,116,VALID,0.905692,
2003-12-24, 01:15:00,VALID,919.422,VALID,0,VALID,100,VALID,-0.0849042,VALID,18.5218,VALID,120,VALID,0.946555,
2003-12-24, 01:16:00,VALID,919.416,VALID,0,VALID,100,VALID,-0.0509425,VALID,18.5407,VALID,114,VALID,1.2885,
2003-12-24, 01:17:00,VALID,919.41,VALID,0,VALID,100,VALID,-0.0339617,VALID,18.5958,VALID,99,VALID,1.05705,
2003-12-24, 01:18:00,VALID,919.408,VALID,0,VALID,100,VALID,-0.0509425,VALID,18.573,VALID,79,VALID,0.616806,
2003-12-24, 01:19:00,VALID,919.408,VALID,0,VALID,100,VALID,-0.0339617,VALID,18.5144,VALID,69,VALID,0.395952,
2003-12-24, 01:20:00,VALID,919.383,VALID,0,VALID,100,VALID,-0.0339617,VALID,18.4985,VALID,69,VALID,0.412919,
2003-12-24, 01:21:00,VALID,919.369,VALID,0,VALID,100,VALID,-0.0679233,VALID,18.5059,VALID,68,VALID,0.545277,
2003-12-24, 01:22:00,VALID,919.364,VALID,0,VALID,100,VALID,-0.0339617,VALID,18.4826,VALID,54,VALID,0.615327,
2003-12-24, 01:23:00,VALID,919.359,VALID,0,VALID,100,VALID,0,VALID,18.4632,VALID,67,VALID,0.572461,
2003-12-24, 01:24:00,VALID,919.339,VALID,0,VALID,100,VALID,0,VALID,18.4629,VALID,63,VALID,0.524182,
2003-12-24, 01:25:00,VALID,919.323,VALID,0,VALID,100,VALID,-0.0169808,VALID,18.4081,VALID,52,VALID,0.657422,
2003-12-24, 01:26:00,VALID,919.298,VALID,0,VALID,100,VALID,0,VALID,18.3569,VALID,53,VALID,0.745561,
2003-12-24, 01:27:00,VALID,919.288,VALID,0,VALID,100,VALID,0,VALID,18.3271,VALID,47,VALID,0.706032,
2003-12-24, 01:28:00,VALID,919.266,VALID,0,VALID,100,VALID,-0.0169808,VALID,18.305,VALID,49,VALID,0.720553,
2003-12-24, 01:29:00,VALID,919.257,VALID,0,VALID,100,VALID,0,VALID,18.2529,VALID,37,VALID,0.811979,
2003-12-24, 01:30:00,VALID,919.23,VALID,0,VALID,100,VALID,0,VALID,18.2178,VALID,57,VALID,0.602653,
2003-12-24, 01:31:00,VALID,919.201,VALID,0,VALID,100,VALID,0,VALID,18.2107,VALID,51,VALID,0.678571,
2003-12-24, 01:32:00,VALID,919.171,VALID,0,VALID,100,VALID,0,VALID,18.2109,VALID,45,VALID,0.942595,
2003-12-24, 01:33:00,VALID,919.161,VALID,0,VALID,100,VALID,-0.0169808,VALID,18.2019,VALID,73,VALID,0.731001,
2003-12-24, 01:34:00,VALID,919.153,VALID,0,VALID,100,VALID,-0.0339617,VALID,18.2111,VALID,63,VALID,0.582812,
2003-12-24, 01:35:00,VALID,919.155,VALID,0,VALID,100,VALID,0,VALID,18.1948,VALID,90,VALID,0.332961,
2003-12-24, 01:36:00,VALID,919.145,VALID,0,VALID,100,VALID,-0.0169808,VALID,18.2079,VALID,129,VALID,0.987165,
2003-12-24, 01:37:00,VALID,919.149,VALID,0,VALID,100,VALID,-0.0849042,VALID,18.2794,VALID,123,VALID,1.4561,
2003-12-24, 01:38:00,VALID,919.131,VALID,0,VALID,100,VALID,-0.0169808,VALID,18.3154,VALID,132,VALID,1.31441,
2003-12-24, 01:39:00,VALID,919.104,VALID,0,VALID,100,VALID,-0.0169808,VALID,18.3338,VALID,139,VALID,1.50639,
2003-12-24, 01:40:00,VALID,919.077,VALID,0,VALID,100,VALID,-0.0339617,VALID,18.3668,VALID,132,VALID,1.48121,
2003-12-24, 01:41:00,VALID,919.059,VALID,0,VALID,100,VALID,-0.0509425,VALID,18.3666,VALID,130,VALID,1.42827,
2003-12-24, 01:42:00,VALID,919.046,VALID,0,VALID,100,VALID,-0.0679233,VALID,18.3735,VALID,120,VALID,1.67305,
2003-12-24, 01:43:00,VALID,919.065,VALID,0,VALID,100,VALID,-0.0679233,VALID,18.3511,VALID,117,VALID,1.06845,
2003-12-24, 01:44:00,VALID,919.073,VALID,0,VALID,100,VALID,-0.0169808,VALID,18.3405,VALID,128,VALID,1.07608,
2003-12-24, 01:45:00,VALID,919.07,VALID,0,VALID,100,VALID,-0.0339617,VALID,18.3569,VALID,135,VALID,1.33576,
2003-12-24, 01:46:00,VALID,919.093,VALID,0,VALID,100,VALID,-0.0169808,VALID,18.3922,VALID,141,VALID,0.915879,
2003-12-24, 01:47:00,VALID,919.097,VALID,0,VALID,100,VALID,-0.0169808,VALID,18.3857,VALID,120,VALID,0.742535,
2003-12-24, 01:48:00,VALID,919.082,VALID,0,VALID,100,VALID,0,VALID,18.3569,VALID,133,VALID,0.780887,
2003-12-24, 01:49:00,VALID,919.075,VALID,0,VALID,100,VALID,-0.0339617,VALID,18.3345,VALID,103,VALID,0.834517,
2003-12-24, 01:50:00,VALID,919.055,VALID,0,VALID,100,VALID,0,VALID,18.2985,VALID,104,VALID,0.922965,
2003-12-24, 01:51:00,VALID,919.041,VALID,0,VALID,100,VALID,-0.0169808,VALID,18.2764,VALID,80,VALID,0.499273,
2003-12-24, 01:52:00,VALID,919.023,VALID,0,VALID,100,VALID,0.0339617,VALID,18.2628,VALID,58,VALID,0.119549,
2003-12-24, 01:53:00,VALID,919.02,VALID,0,VALID,100,VALID,0.0679233,VALID,18.2524,VALID,105,VALID,0.51456,
2003-12-24, 01:54:00,VALID,919.025,VALID,0,VALID,100,VALID,0.0849042,VALID,18.2524,VALID,133,VALID,0.664063,
2003-12-24, 01:55:00,VALID,919.009,VALID,0,VALID,100,VALID,-0.0169808,VALID,18.257,VALID,101,VALID,0.656072,
2003-12-24, 01:56:00,VALID,918.998,VALID,0,VALID,100,VALID,0,VALID,18.2665,VALID,86,VALID,0.525436,
2003-12-24, 01:57:00,VALID,918.989,VALID,0,VALID,100,VALID,-0.0509425,VALID,18.2699,VALID,86,VALID,0.2883,
2003-12-24, 01:58:00,VALID,918.969,VALID,0,VALID,100,VALID,0,VALID,18.2471,VALID,74,VALID,0.311198,
2003-12-24, 01:59:00,VALID,918.96,VALID,0,VALID,100,VALID,0,VALID,18.2351,VALID,73,VALID,0.364844,
2003-12-24, 02:00:00,VALID,918.948,VALID,0,VALID,100,VALID,-0.0679233,VALID,18.2346,VALID,84,VALID,0.527644,
2003-12-24, 02:01:00,VALID,918.929,VALID,0,VALID,100,VALID,-0.0169808,VALID,18.2602,VALID,96,VALID,0.806868,
2003-12-24, 02:02:00,VALID,918.909,VALID,0,VALID,100,VALID,-0.0169808,VALID,18.2729,VALID,120,VALID,0.702753,
2003-12-24, 02:03:00,VALID,918.898,VALID,0,VALID,100,VALID,-0.0169808,VALID,18.2994,VALID,146,VALID,1.4498,
2003-12-24, 02:04:00,VALID,918.868,VALID,0,VALID,100,VALID,0,VALID,18.2925,VALID,133,VALID,1.44722,
2003-12-24, 02:05:00,VALID,918.847,VALID,0,VALID,100,VALID,-0.0169808,VALID,18.2953,VALID,146,VALID,1.149,
2003-12-24, 02:06:00,VALID,918.83,VALID,0,VALID,100,VALID,-0.0339617,VALID,18.3057,VALID,139,VALID,1.25577,
2003-12-24, 02:07:00,VALID,918.81,VALID,0,VALID,100,VALID,-0.0339617,VALID,18.293,VALID,141,VALID,0.965199,
2003-12-24, 02:08:00,VALID,918.794,VALID,0,VALID,100,VALID,0,VALID,18.2734,VALID,143,VALID,1.57622,
2003-12-24, 02:09:00,VALID,918.786,VALID,0,VALID,100,VALID,0,VALID,18.2732,VALID,128,VALID,0.995458,
2003-12-24, 02:10:00,VALID,918.754,VALID,0,VALID,100,VALID,-0.0169808,VALID,18.2473,VALID,170,VALID,0.705171,
2003-12-24, 02:11:00,VALID,918.744,VALID,0,VALID,100,VALID,-0.0509425,VALID,18.2314,VALID,121,VALID,0.720982,
2003-12-24, 02:12:00,VALID,918.728,VALID,0,VALID,100,VALID,0,VALID,18.2153,VALID,134,VALID,0.955729,
2003-12-24, 02:13:00,VALID,918.72,VALID,0,VALID,100,VALID,0,VALID,18.1984,VALID,147,VALID,1.26871,
2003-12-24, 02:14:00,VALID,918.693,VALID,0,VALID,100,VALID,0,VALID,18.2084,VALID,141,VALID,1.50957,
2003-12-24, 02:15:00,VALID,918.693,VALID,0,VALID,100,VALID,-0.0169808,VALID,18.2312,VALID,149,VALID,1.34012,
2003-12-24, 02:16:00,VALID,918.674,VALID,0,VALID,100,VALID,0,VALID,18.2245,VALID,148,VALID,1.17847,
2003-12-24, 02:17:00,VALID,918.674,VALID,0,VALID,100,VALID,0,VALID,18.231,VALID,147,VALID,1.15865,
2003-12-24, 02:18:00,VALID,918.672,VALID,0,VALID,100,VALID,-0.0169808,VALID,18.2441,VALID,158,VALID,0.864236,
2003-12-24, 02:19:00,VALID,918.646,VALID,0,VALID,100,VALID,-0.0169808,VALID,18.2706,VALID,145,VALID,1.0651,
2003-12-24, 02:20:00,VALID,918.627,VALID,0,VALID,100,VALID,0,VALID,18.2602,VALID,150,VALID,0.999256,
2003-12-24, 02:21:00,VALID,918.612,VALID,0,VALID,100,VALID,0,VALID,18.257,VALID,156,VALID,1.1088,
2003-12-24, 02:22:00,VALID,918.608,VALID,0,VALID,100,VALID,-0.0169808,VALID,18.2632,VALID,141,VALID,1.1981,
2003-12-24, 02:23:00,VALID,918.619,VALID,0,VALID,100,VALID,0,VALID,18.2702,VALID,127,VALID,0.951069,
2003-12-24, 02:24:00,VALID,918.624,VALID,0,VALID,100,VALID,-0.0169808,VALID,18.2605,VALID,139,VALID,1.31712,
2003-12-24, 02:25:00,VALID,918.623,VALID,0,VALID,100,VALID,-0.0339617,VALID,18.251,VALID,143,VALID,0.861683,
2003-12-24, 02:26:00,VALID,918.611,VALID,0,VALID,100,VALID,0,VALID,18.2409,VALID,147,VALID,1.50566,
2003-12-24, 02:27:00,VALID,918.606,VALID,0,VALID,100,VALID,0,VALID,18.234,VALID,116,VALID,1.23509,
2003-12-24, 02:28:00,VALID,918.565,VALID,0,VALID,100,VALID,-0.0339617,VALID,18.218,VALID,132,VALID,1.65483,
2003-12-24, 02:29:00,VALID,918.565,VALID,0,VALID,100,VALID,-0.0169808,VALID,18.2282,VALID,128,VALID,1.64717,
2003-12-24, 02:30:00,VALID,918.563,VALID,0,VALID,100,VALID,0,VALID,18.2116,VALID,130,VALID,1.41602,
2003-12-24, 02:31:00,VALID,918.554,VALID,0,VALID,100,VALID,0,VALID,18.1825,VALID,121,VALID,1.47756,
2003-12-24, 02:32:00,VALID,918.543,VALID,0,VALID,100,VALID,0,VALID,18.1798,VALID,127,VALID,1.16992,
2003-12-24, 02:33:00,VALID,918.523,VALID,0,VALID,100,VALID,-0.0169808,VALID,18.1897,VALID,123,VALID,1.95238,
2003-12-24, 02:34:00,VALID,918.511,VALID,0,VALID,100,VALID,-0.0169808,VALID,18.1537,VALID,127,VALID,1.28441,
2003-12-24, 02:35:00,VALID,918.517,VALID,0,VALID,100,VALID,-0.0169808,VALID,18.1376,VALID,148,VALID,1.11142,
2003-12-24, 02:36:00,VALID,918.509,VALID,0,VALID,100,VALID,0,VALID,18.1249,VALID,146,VALID,1.82262,
2003-12-24, 02:37:00,VALID,918.496,VALID,0,VALID,100,VALID,0,VALID,18.1279,VALID,122,VALID,1.28776,
2003-12-24, 02:38:00,VALID,918.484,VALID,0,VALID,100,VALID,0,VALID,18.102,VALID,142,VALID,1.52679,
2003-12-24, 02:39:00,VALID,918.462,VALID,0,VALID,100,VALID,0,VALID,18.0829,VALID,126,VALID,1.17893,
2003-12-24, 02:40:00,VALID,918.461,VALID,0,VALID,100,VALID,-0.0169808,VALID,18.0213,VALID,126,VALID,1.18306,
2003-12-24, 02:41:00,VALID,918.47,VALID,0,VALID,100,VALID,0,VALID,17.9731,VALID,127,VALID,1.48828,
2003-12-24, 02:42:00,VALID,918.47,VALID,0,VALID,100,VALID,-0.0339617,VALID,17.9344,VALID,132,VALID,1.44847,
2003-12-24, 02:43:00,VALID,918.467,VALID,0,VALID,100,VALID,0,VALID,17.8952,VALID,148,VALID,1.74818,
2003-12-24, 02:44:00,VALID,918.463,VALID,0,VALID,100,VALID,-0.0169808,VALID,17.9088,VALID,122,VALID,0.789634,
2003-12-24, 02:45:00,VALID,918.446,VALID,0,VALID,100,VALID,-0.0169808,VALID,17.8758,VALID,145,VALID,1.17188,
2003-12-24, 02:46:00,VALID,918.402,VALID,0,VALID,100,VALID,-0.0339617,VALID,17.8731,VALID,140,VALID,1.40498,
2003-12-24, 02:47:00,VALID,918.373,VALID,0,VALID,100,VALID,-0.0339617,VALID,17.85,VALID,145,VALID,1.54229,
2003-12-24, 02:48:00,VALID,918.336,VALID,0,VALID,100,VALID,-0.0169808,VALID,17.8509,VALID,151,VALID,1.93859,
2003-12-24, 02:49:00,VALID,918.317,VALID,0,VALID,100,VALID,-0.0169808,VALID,17.8406,VALID,133,VALID,1.15396,
2003-12-24, 02:50:00,VALID,918.322,VALID,0,VALID,100,VALID,0,VALID,17.8244,VALID,143,VALID,1.49043,
2003-12-24, 02:51:00,VALID,918.338,VALID,0,VALID,100,VALID,0,VALID,17.8346,VALID,172,VALID,0.667597,
2003-12-24, 02:52:00,VALID,918.337,VALID,0,VALID,100,VALID,-0.0509425,VALID,17.8246,VALID,168,VALID,1.68288,
2003-12-24, 02:53:00,VALID,918.335,VALID,0,VALID,100,VALID,0,VALID,17.8182,VALID,162,VALID,0.938834,
2003-12-24, 02:54:00,VALID,918.321,VALID,0,VALID,100,VALID,-0.0509425,VALID,17.8018,VALID,160,VALID,0.69769,
2003-12-24, 02:55:00,VALID,918.304,VALID,0,VALID,100,VALID,-0.0169808,VALID,17.7958,VALID,165,VALID,1.2294,
2003-12-24, 02:56:00,VALID,918.29,VALID,0,VALID,100,VALID,-0.0509425,VALID,17.7928,VALID,143,VALID,1.56492,
2003-12-24, 02:57:00,VALID,918.259,VALID,0,VALID,100,VALID,-0.0679233,VALID,17.7762,VALID,150,VALID,1.39196,
2003-12-24, 02:58:00,VALID,918.251,VALID,0,VALID,100,VALID,-0.0679233,VALID,17.7702,VALID,162,VALID,0.950335,
2003-12-24, 02:59:00,VALID,918.235,VALID,0,VALID,100,VALID,-0.0169808,VALID,17.7569,VALID,167,VALID,0.977951,
2003-12-24, 03:00:00,VALID,918.227,VALID,0,VALID,100,VALID,-0.0169808,VALID,17.7896,VALID,143,VALID,1.80543,
2003-12-24, 03:01:00,VALID,918.214,VALID,0,VALID,100,VALID,-0.0169808,VALID,17.7954,VALID,152,VALID,0.813033,
2003-12-24, 03:02:00,VALID,918.202,VALID,0,VALID,100,VALID,-0.0339617,VALID,17.7924,VALID,162,VALID,1.17795,
2003-12-24, 03:03:00,VALID,918.193,VALID,0,VALID,100,VALID,0,VALID,17.8023,VALID,135,VALID,1.03852,
2003-12-24, 03:04:00,VALID,918.184,VALID,0,VALID,100,VALID,0,VALID,17.7954,VALID,163,VALID,1.109,
2003-12-24, 03:05:00,VALID,918.191,VALID,0,VALID,100,VALID,0,VALID,17.7822,VALID,137,VALID,1.04566,
2003-12-24, 03:06:00,VALID,918.197,VALID,0,VALID,100,VALID,0,VALID,17.7764,VALID,130,VALID,0.699963,
2003-12-24, 03:07:00,VALID,918.197,VALID,0,VALID,100,VALID,-0.0169808,VALID,17.7795,VALID,149,VALID,0.871838,
2003-12-24, 03:08:00,VALID,918.208,VALID,0,VALID,100,VALID,0,VALID,17.7702,VALID,139,VALID,1.03754,
2003-12-24, 03:09:00,VALID,918.21,VALID,0,VALID,100,VALID,-0.0339617,VALID,17.7926,VALID,136,VALID,1.00036,
2003-12-24, 03:10:00,VALID,918.223,VALID,0,VALID,100,VALID,0,VALID,17.8053,VALID,138,VALID,1.42587,
2003-12-24, 03:11:00,VALID,918.236,VALID,0,VALID,100,VALID,0,VALID,17.8189,VALID,156,VALID,1.19495,
2003-12-24, 03:12:00,VALID,918.219,VALID,0,VALID,100,VALID,-0.0339617,VALID,17.8346,VALID,142,VALID,1.2827,
2003-12-24, 03:13:00,VALID,918.188,VALID,0,VALID,100,VALID,0,VALID,17.8472,VALID,124,VALID,1.29632,
2003-12-24, 03:14:00,VALID,918.175,VALID,0,VALID,100,VALID,0,VALID,17.8438,VALID,130,VALID,1.35295,
2003-12-24, 03:15:00,VALID,918.153,VALID,0,VALID,100,VALID,-0.0169808,VALID,17.8537,VALID,130,VALID,1.23555,
2003-12-24, 03:16:00,VALID,918.135,VALID,0,VALID,100,VALID,0,VALID,17.8539,VALID,132,VALID,1.25382,
2003-12-24, 03:17:00,VALID,918.124,VALID,0,VALID,100,VALID,-0.0169808,VALID,17.8539,VALID,140,VALID,1.29167,
2003-12-24, 03:18:00,VALID,918.123,VALID,0,VALID,100,VALID,0,VALID,17.847,VALID,134,VALID,1.21361,
2003-12-24, 03:19:00,VALID,918.124,VALID,0,VALID,100,VALID,0.0169808,VALID,17.8505,VALID,120,VALID,1.3724,
2003-12-24, 03:20:00,VALID,918.122,VALID,0,VALID,100,VALID,-0.0339617,VALID,17.8502,VALID,151,VALID,1.54978,
2003-12-24, 03:21:00,VALID,918.128,VALID,0,VALID,100,VALID,0.0169808,VALID,17.8602,VALID,136,VALID,1.4224,
2003-12-24, 03:22:00,VALID,918.127,VALID,0,VALID,100,VALID,0,VALID,17.8728,VALID,131,VALID,1.40181,
2003-12-24, 03:23:00,VALID,918.121,VALID,0,VALID,100,VALID,0,VALID,17.8567,VALID,142,VALID,1.06213,
2003-12-24, 03:24:00,VALID,918.106,VALID,0,VALID,100,VALID,0,VALID,17.8604,VALID,136,VALID,0.712713,
2003-12-24, 03:25:00,VALID,918.109,VALID,0,VALID,100,VALID,-0.0169808,VALID,17.847,VALID,154,VALID,0.778819,
2003-12-24, 03:26:00,VALID,918.086,VALID,0,VALID,100,VALID,0,VALID,17.8341,VALID,147,VALID,1.13002,
2003-12-24, 03:27:00,VALID,918.091,VALID,0,VALID,100,VALID,-0.0169808,VALID,17.841,VALID,151,VALID,1.50438,
2003-12-24, 03:28:00,VALID,918.104,VALID,0,VALID,100,VALID,-0.0169808,VALID,17.8602,VALID,139,VALID,1.57324,
2003-12-24, 03:29:00,VALID,918.115,VALID,0,VALID,100,VALID,-0.0339617,VALID,17.8862,VALID,142,VALID,1.24297,
2003-12-24, 03:30:00,VALID,918.112,VALID,0,VALID,100,VALID,-0.0169808,VALID,17.8864,VALID,122,VALID,1.13014,
2003-12-24, 03:31:00,VALID,918.117,VALID,0,VALID,100,VALID,-0.0339617,VALID,17.8763,VALID,134,VALID,1.32298,
2003-12-24, 03:32:00,VALID,918.11,VALID,0,VALID,100,VALID,-0.0169808,VALID,17.8961,VALID,131,VALID,1.52743,
2003-12-24, 03:33:00,VALID,918.125,VALID,0,VALID,100,VALID,-0.0339617,VALID,17.8701,VALID,105,VALID,1.30898,
2003-12-24, 03:34:00,VALID,918.128,VALID,0,VALID,100,VALID,-0.0169808,VALID,17.8636,VALID,119,VALID,1.28232,
2003-12-24, 03:35:00,VALID,918.137,VALID,0,VALID,100,VALID,0,VALID,17.8415,VALID,101,VALID,0.793241,
2003-12-24, 03:36:00,VALID,918.153,VALID,0,VALID,100,VALID,0,VALID,17.7924,VALID,85,VALID,0.565662,
2003-12-24, 03:37:00,VALID,918.156,VALID,0,VALID,100,VALID,0,VALID,17.7831,VALID,87,VALID,1.29487,
2003-12-24, 03:38:00,VALID,918.179,VALID,0,VALID,100,VALID,-0.0339617,VALID,17.767,VALID,35,VALID,0.568452,
2003-12-24, 03:39:00,VALID,918.153,VALID,0,VALID,100,VALID,-0.0169808,VALID,17.7506,VALID,106,VALID,0.481585,
2003-12-24, 03:40:00,VALID,918.156,VALID,0,VALID,100,VALID,0,VALID,17.7407,VALID,110,VALID,0.671181,
2003-12-24, 03:41:00,VALID,918.14,VALID,0,VALID,100,VALID,0,VALID,17.7596,VALID,73,VALID,0.427641,